TimeCST,TemperatureF,Dew PointF,Humidity,Sea Level PressureIn,VisibilityMPH,Wind Direction,Wind SpeedMPH,Gust SpeedMPH,PrecipitationIn,Events,Conditions,WindDirDegrees,DateUTC
12:52 AM,23.0,17.1,78,30.20,10.0,WSW,4.6,-,N/A,,Clear,240,2012-11-27 06:52:00
1:52 AM,15.1,12.0,88,30.19,10.0,SSW,4.6,-,N/A,,Clear,200,2012-11-27 07:52:00
2:52 AM,17.1,12.9,84,30.18,10.0,Calm,Calm,-,N/A,,Clear,0,2012-11-27 08:52:00
3:52 AM,16.0,12.0,84,30.17,10.0,Calm,Calm,-,N/A,,Clear,0,2012-11-27 09:52:00
4:52 AM,16.0,12.0,84,30.17,10.0,Calm,Calm,-,N/A,,Clear,0,2012-11-27 10:52:00
5:52 AM,16.0,12.0,84,30.16,10.0,Calm,Calm,-,N/A,,Clear,0,2012-11-27 11:52:00
6:52 AM,15.1,10.9,84,30.17,10.0,Calm,Calm,-,N/A,,Clear,0,2012-11-27 12:52:00
7:52 AM,15.1,14.0,95,30.18,10.0,Calm,Calm,-,N/A,,Clear,0,2012-11-27 13:52:00
8:40 AM,19.4,15.8,86,30.10,10.0,WNW,3.5,-,N/A,,Mostly Cloudy,300,2012-11-27 14:40:00
8:52 AM,21.0,18.0,88,30.20,10.0,WNW,3.5,-,N/A,,Overcast,290,2012-11-27 14:52:00
9:02 AM,21.2,17.6,86,30.11,10.0,West,3.5,-,N/A,,Overcast,280,2012-11-27 15:02:00
9:10 AM,21.2,17.6,86,30.11,10.0,Calm,Calm,-,N/A,,Overcast,0,2012-11-27 15:10:00
9:52 AM,23.0,19.9,88,30.22,10.0,West,3.5,-,N/A,,Overcast,270,2012-11-27 15:52:00
10:52 AM,26.1,23.0,88,30.22,6.0,Calm,Calm,-,N/A,,Overcast,0,2012-11-27 16:52:00
11:52 AM,28.0,24.1,85,30.22,7.0,WSW,3.5,-,N/A,,Overcast,250,2012-11-27 17:52:00
12:31 PM,28.4,24.8,86,30.14,5.0,Calm,Calm,-,N/A,,Haze,0,2012-11-27 18:31:00
12:52 PM,30.9,24.1,76,30.21,4.0,West,3.5,-,N/A,,Haze,280,2012-11-27 18:52:00
1:23 PM,32.0,24.8,75,30.13,4.0,Calm,Calm,-,N/A,,Haze,0,2012-11-27 19:23:00
1:52 PM,33.1,24.1,70,30.21,5.0,West,5.8,-,N/A,,Haze,270,2012-11-27 19:52:00
2:52 PM,34.0,25.0,70,30.21,4.0,NW,5.8,-,N/A,,Haze,310,2012-11-27 20:52:00
3:52 PM,34.0,24.1,67,30.22,4.0,NW,5.8,-,N/A,,Haze,310,2012-11-27 21:52:00
4:52 PM,28.9,21.9,75,30.24,6.0,Calm,Calm,-,N/A,,Haze,0,2012-11-27 22:52:00
5:52 PM,28.0,21.9,78,30.26,10.0,North,3.5,-,N/A,,Clear,360,2012-11-27 23:52:00
6:52 PM,21.0,18.0,88,30.29,7.0,Calm,Calm,-,N/A,,Clear,0,2012-11-28 00:52:00
7:52 PM,21.0,17.1,85,30.29,6.0,Calm,Calm,-,N/A,,Clear,0,2012-11-28 01:52:00
8:52 PM,17.1,14.0,88,30.31,7.0,Calm,Calm,-,N/A,,Clear,0,2012-11-28 02:52:00
9:52 PM,12.9,10.0,88,30.32,7.0,Calm,Calm,-,N/A,,Clear,0,2012-11-28 03:52:00
10:52 PM,16.0,12.9,88,30.32,6.0,Calm,Calm,-,N/A,,Clear,0,2012-11-28 04:52:00
11:52 PM,10.9,8.1,88,30.32,7.0,Calm,Calm,-,N/A,,Clear,0,2012-11-28 05:52:00